When you browse on this site, cookies collect data to enhance your experience and personalize the content and advertising you see.
Visit our Privacy Policy to learn more. By continuing to use the site, you agree to this use of cookies and data.
  • In Italy
  • List of Countries
  • For 7 days
  • Water Temperature
  • Satellite Maps
  • Weather Map
  • Weather Widgets
  • user-avatar
    Login

    Hourly Weather Mons

    Today, 22 March, Friday

    Time Temperature Precipitation Wind Pressure Humidity
    00:00 +8°C° 0 mm 2 mps 771 mmHg 93%
    01:00 +7°C° 0 mm 2 mps 770 mmHg 91%
    02:00 +7°C° 0 mm 2 mps 770 mmHg 88%
    03:00 +7°C° 0 mm 2 mps 770 mmHg 86%
    04:00 +7°C° 0 mm 2 mps 770 mmHg 82%
    05:00 +7°C° 0 mm 2 mps 770 mmHg 79%
    06:00 +6°C° 0 mm 2 mps 770 mmHg 74%
    07:00 +8°C° 0 mm 2 mps 770 mmHg 69%
    08:00 +10°C° 0 mm 2 mps 770 mmHg 64%
    09:00 +13°C° 0 mm 2 mps 769 mmHg 60%
    10:00 +14°C° 0 mm 2 mps 769 mmHg 56%
    11:00 +16°C° 0 mm 2 mps 769 mmHg 52%
    12:00 +17°C° 0 mm 2 mps 769 mmHg 48%
    13:00 +17°C° 0 mm 2 mps 768 mmHg 49%
    14:00 +17°C° 0 mm 2 mps 768 mmHg 50%
    15:00 +18°C° 0 mm 3 mps 767 mmHg 51%
    16:00 +16°C° 0 mm 2 mps 767 mmHg 58%
    17:00 +14°C° 0 mm 2 mps 767 mmHg 64%
    18:00 +12°C° 0 mm 2 mps 767 mmHg 71%
    19:00 +12°C° 0 mm 2 mps 767 mmHg 73%
    20:00 +10°C° 0 mm 2 mps 768 mmHg 75%
    21:00 +9°C° 0 mm 2 mps 768 mmHg 78%
    22:00 +9°C° 0 mm 1 mps 768 mmHg 82%
    23:00 +9°C° 0 mm 1 mps 768 mmHg 86%

    Tomorrow, 23 March, Saturday

    Time Temperature Precipitation Wind Pressure Humidity
    00:00 +8°C° 0 mm 1 mps 768 mmHg 91%
    01:00 +8°C° 0 mm 1 mps 768 mmHg 92%
    02:00 +7°C° 0 mm 1 mps 768 mmHg 93%
    03:00 +7°C° 0 mm 1 mps 768 mmHg 94%
    04:00 +7°C° 0 mm 1 mps 769 mmHg 95%
    05:00 +6°C° 0 mm 1 mps 769 mmHg 95%
    06:00 +5°C° 0 mm 0 mps 769 mmHg 96%
    07:00 +8°C° 0 mm 1 mps 769 mmHg 91%
    08:00 +10°C° 0 mm 1 mps 769 mmHg 86%
    09:00 +12°C° 0 mm 2 mps 769 mmHg 81%
    10:00 +12°C° 0 mm 2 mps 770 mmHg 78%
    11:00 +13°C° 0 mm 2 mps 770 mmHg 75%
    12:00 +14°C° 0 mm 2 mps 770 mmHg 72%
    13:00 +12°C° 0 mm 3 mps 770 mmHg 73%
    14:00 +12°C° 0 mm 3 mps 770 mmHg 75%
    15:00 +12°C° 0 mm 3 mps 770 mmHg 76%
    16:00 +12°C° 0 mm 3 mps 770 mmHg 79%
    17:00 +11°C° 0 mm 3 mps 770 mmHg 83%
    18:00 +10°C° 0 mm 3 mps 770 mmHg 87%
    19:00 +9°C° 0 mm 3 mps 770 mmHg 90%
    20:00 +8°C° 0 mm 3 mps 770 mmHg 93%
    21:00 +7°C° 0 mm 3 mps 770 mmHg 95%
    22:00 +7°C° 0 mm 3 mps 770 mmHg 95%
    23:00 +7°C° 0 mm 3 mps 770 mmHg 95%

    Day after tomorrow, 24 March, Sunday

    Time Temperature Precipitation Wind Pressure Humidity
    00:00 +5°C° 0 mm 3 mps 770 mmHg 95%
    01:00 +5°C° 0 mm 3 mps 770 mmHg 94%
    02:00 +4°C° 0 mm 3 mps 770 mmHg 93%
    03:00 +4°C° 0 mm 3 mps 769 mmHg 92%
    04:00 +4°C° 0 mm 3 mps 769 mmHg 91%
    05:00 +3°C° 0 mm 3 mps 769 mmHg 91%
    06:00 +3°C° 0 mm 3 mps 769 mmHg 90%
    07:00 +5°C° 0 mm 3 mps 769 mmHg 85%
    08:00 +7°C° 0 mm 3 mps 769 mmHg 80%
    09:00 +9°C° 0 mm 3 mps 770 mmHg 75%
    10:00 +10°C° 0 mm 3 mps 769 mmHg 70%
    11:00 +11°C° 0 mm 3 mps 769 mmHg 65%
    12:00 +12°C° 0 mm 4 mps 769 mmHg 59%
    13:00 +12°C° 0 mm 4 mps 769 mmHg 56%
    14:00 +12°C° 0 mm 4 mps 769 mmHg 53%
    15:00 +12°C° 0 mm 5 mps 769 mmHg 50%
    16:00 +10°C° 0 mm 4 mps 769 mmHg 55%
    17:00 +8°C° 0 mm 4 mps 769 mmHg 61%
    18:00 +7°C° 0 mm 3 mps 770 mmHg 66%
    19:00 +5°C° 0 mm 3 mps 770 mmHg 68%
    20:00 +4°C° 0 mm 3 mps 770 mmHg 71%
    21:00 +4°C° 0 mm 2 mps 771 mmHg 74%
    22:00 +4°C° 0 mm 2 mps 771 mmHg 77%
    23:00 +4°C° 0 mm 2 mps 771 mmHg 80%

    25 March, Monday

    Time Temperature Precipitation Wind Pressure Humidity
    00:00 +4°C° 0 mm 1 mps 771 mmHg 83%
    01:00 +4°C° 0 mm 1 mps 770 mmHg 84%
    02:00 +3°C° 0 mm 2 mps 770 mmHg 85%
    03:00 +3°C° 0 mm 2 mps 770 mmHg 86%
    04:00 +3°C° 0 mm 2 mps 770 mmHg 88%
    05:00 +3°C° 0 mm 2 mps 770 mmHg 90%
    06:00 +3°C° 0 mm 2 mps 770 mmHg 92%
    07:00 +4°C° 0 mm 3 mps 770 mmHg 86%
    08:00 +6°C° 0 mm 4 mps 770 mmHg 81%
    09:00 +8°C° 0 mm 4 mps 770 mmHg 75%
    10:00 +8°C° 0.1 mm 5 mps 770 mmHg 74%
    11:00 +8°C° 0.1 mm 5 mps 771 mmHg 73%
    12:00 +9°C° 0.1 mm 5 mps 771 mmHg 71%
    13:00 +9°C° 0.1 mm 6 mps 771 mmHg 67%
    14:00 +9°C° 0.1 mm 6 mps 771 mmHg 63%
    15:00 +9°C° 0.1 mm 7 mps 771 mmHg 58%
    16:00 +8°C° 0 mm 6 mps 771 mmHg 63%
    17:00 +6°C° 0 mm 5 mps 771 mmHg 67%
    18:00 +5°C° 0 mm 4 mps 772 mmHg 71%
    19:00 +4°C° 0 mm 3 mps 772 mmHg 75%
    20:00 +3°C° 0 mm 3 mps 773 mmHg 79%
    21:00 +2°C° 0 mm 3 mps 774 mmHg 83%
    22:00 +2°C° 0 mm 3 mps 774 mmHg 85%
    23:00 +3°C° 0 mm 2 mps 774 mmHg 87%

    26 March, Tuesday

    Time Temperature Precipitation Wind Pressure Humidity
    00:00 +2°C° 0 mm 2 mps 775 mmHg 89%
    01:00 +2°C° 0 mm 2 mps 775 mmHg 90%
    02:00 +2°C° 0 mm 2 mps 775 mmHg 90%
    03:00 +2°C° 0 mm 1 mps 775 mmHg 91%
    04:00 +2°C° 0 mm 1 mps 775 mmHg 91%
    05:00 +2°C° 0 mm 1 mps 775 mmHg 91%
    06:00 +2°C° 0 mm 1 mps 775 mmHg 92%
    07:00 +4°C° 0 mm 1 mps 775 mmHg 84%
    08:00 +5°C° 0 mm 2 mps 775 mmHg 77%
    09:00 +7°C° 0 mm 2 mps 775 mmHg 69%
    10:00 +8°C° 0 mm 2 mps 775 mmHg 63%
    11:00 +11°C° 0 mm 1 mps 775 mmHg 58%
    12:00 +12°C° 0 mm 1 mps 775 mmHg 52%
    13:00 +12°C° 0 mm 1 mps 774 mmHg 51%
    14:00 +13°C° 0 mm 2 mps 774 mmHg 50%
    15:00 +13°C° 0 mm 2 mps 774 mmHg 49%
    16:00 +10°C° 0 mm 2 mps 773 mmHg 55%
    17:00 +9°C° 0 mm 2 mps 773 mmHg 61%
    18:00 +8°C° 0 mm 2 mps 773 mmHg 67%
    19:00 +7°C° 0 mm 2 mps 774 mmHg 70%
    20:00 +6°C° 0 mm 2 mps 774 mmHg 74%
    21:00 +5°C° 0 mm 2 mps 774 mmHg 78%
    22:00 +5°C° 0 mm 1 mps 774 mmHg 78%
    23:00 +5°C° 0 mm 1 mps 774 mmHg 78%

    27 March, Wednesday

    Time Temperature Precipitation Wind Pressure Humidity
    00:00 +4°C° 0 mm 0 mps 774 mmHg 79%
    01:00 +3°C° 0 mm 0 mps 774 mmHg 78%
    02:00 +4°C° 0 mm 1 mps 774 mmHg 77%
    03:00 +4°C° 0 mm 1 mps 774 mmHg 76%
    04:00 +4°C° 0 mm 1 mps 774 mmHg 77%
    05:00 +4°C° 0 mm 1 mps 774 mmHg 77%
    06:00 +4°C° 0 mm 1 mps 774 mmHg 77%
    07:00 +6°C° 0 mm 1 mps 774 mmHg 74%
    08:00 +7°C° 0 mm 2 mps 774 mmHg 72%
    09:00 +10°C° 0 mm 2 mps 774 mmHg 69%
    10:00 +12°C° 0 mm 2 mps 774 mmHg 68%
    11:00 +12°C° 0 mm 3 mps 774 mmHg 67%
    12:00 +13°C° 0 mm 3 mps 774 mmHg 65%
    13:00 +13°C° 0 mm 3 mps 773 mmHg 64%
    14:00 +13°C° 0 mm 3 mps 773 mmHg 63%
    15:00 +13°C° 0 mm 3 mps 773 mmHg 61%
    16:00 +12°C° 0 mm 3 mps 773 mmHg 67%
    17:00 +11°C° 0 mm 3 mps 773 mmHg 72%
    18:00 +10°C° 0 mm 2 mps 773 mmHg 77%
    19:00 +9°C° 0 mm 2 mps 773 mmHg 81%
    20:00 +8°C° 0 mm 2 mps 774 mmHg 85%
    21:00 +7°C° 0 mm 2 mps 774 mmHg 88%
    22:00 +7°C° 0 mm 2 mps 774 mmHg 89%
    23:00 +6°C° 0 mm 2 mps 774 mmHg 90%
    Show more